TimeCDT,TemperatureF,Dew PointF,Humidity,Sea Level PressureIn,VisibilityMPH,Wind Direction,Wind SpeedMPH,Gust SpeedMPH,PrecipitationIn,Events,Conditions,WindDirDegrees,DateUTC
12:15 AM,53.6,48.2,82,30.17,10.0,Calm,Calm,-,N/A,,Clear,0,2013-08-23 05:15:00
12:35 AM,53.6,50.0,88,30.17,10.0,Calm,Calm,-,N/A,,Clear,0,2013-08-23 05:35:00
12:55 AM,51.8,48.2,88,30.17,7.0,Calm,Calm,-,N/A,,Clear,0,2013-08-23 05:55:00
1:15 AM,51.8,48.2,88,30.17,4.0,South,3.5,-,N/A,,Clear,180,2013-08-23 06:15:00
1:35 AM,51.8,48.2,88,30.17,10.0,Calm,Calm,-,N/A,,Clear,0,2013-08-23 06:35:00
1:55 AM,50.0,48.2,94,30.17,1.5,Calm,Calm,-,N/A,,Clear,0,2013-08-23 06:55:00
2:15 AM,50.0,48.2,94,30.17,3.0,Calm,Calm,-,N/A,,Clear,0,2013-08-23 07:15:00
2:35 AM,48.2,46.4,93,30.16,7.0,South,3.5,-,N/A,,Clear,180,2013-08-23 07:35:00
2:55 AM,48.2,46.4,93,30.16,6.0,Calm,Calm,-,N/A,,Clear,0,2013-08-23 07:55:00
3:15 AM,50.0,46.4,87,30.16,8.0,Calm,Calm,-,N/A,,Clear,0,2013-08-23 08:15:00
3:35 AM,48.2,46.4,93,30.16,0.8,Calm,Calm,-,N/A,,Unknown,0,2013-08-23 08:35:00
3:55 AM,48.2,44.6,87,30.16,5.0,Calm,Calm,-,N/A,,Clear,0,2013-08-23 08:55:00
4:15 AM,48.2,46.4,93,30.16,3.0,Calm,Calm,-,N/A,,Clear,0,2013-08-23 09:15:00
4:35 AM,46.4,44.6,93,30.17,2.0,SSE,3.5,-,N/A,,Clear,160,2013-08-23 09:35:00
4:55 AM,48.2,46.4,93,30.17,10.0,SSE,4.6,-,N/A,,Clear,160,2013-08-23 09:55:00
5:15 AM,48.2,46.4,93,30.17,9.0,SSE,3.5,-,N/A,,Clear,160,2013-08-23 10:15:00
5:35 AM,48.2,46.4,93,30.17,5.0,Calm,Calm,-,N/A,,Clear,0,2013-08-23 10:35:00
5:55 AM,46.4,44.6,93,30.17,2.5,Calm,Calm,-,N/A,,Clear,0,2013-08-23 10:55:00
6:15 AM,48.2,46.4,93,30.17,3.0,Calm,Calm,-,N/A,,Clear,0,2013-08-23 11:15:00
6:35 AM,46.4,44.6,93,30.18,9.0,South,3.5,-,N/A,,Clear,170,2013-08-23 11:35:00
6:55 AM,46.4,44.6,93,30.18,9.0,Calm,Calm,-,N/A,,Clear,0,2013-08-23 11:55:00
7:15 AM,46.4,44.6,93,30.18,9.0,Calm,Calm,-,N/A,,Clear,0,2013-08-23 12:15:00
7:35 AM,48.2,46.4,93,30.18,10.0,South,3.5,-,N/A,,Clear,170,2013-08-23 12:35:00
7:55 AM,51.8,50.0,94,30.18,10.0,South,3.5,-,N/A,,Clear,170,2013-08-23 12:55:00
8:15 AM,53.6,53.6,100,30.18,10.0,SSE,3.5,-,N/A,,Clear,150,2013-08-23 13:15:00
8:35 AM,57.2,51.8,82,30.18,10.0,SSE,5.8,-,N/A,,Partly Cloudy,160,2013-08-23 13:35:00
8:55 AM,60.8,51.8,72,30.17,10.0,SSE,5.8,-,N/A,,Partly Cloudy,150,2013-08-23 13:55:00
9:15 AM,62.6,51.8,68,30.17,10.0,SSE,9.2,-,N/A,,Clear,160,2013-08-23 14:15:00
9:35 AM,64.4,50.0,59,30.16,10.0,SSE,10.4,-,N/A,,Clear,160,2013-08-23 14:35:00
9:55 AM,66.2,50.0,56,30.16,10.0,South,6.9,-,N/A,,Clear,170,2013-08-23 14:55:00
10:15 AM,68.0,51.8,56,30.16,10.0,SSE,8.1,-,N/A,,Clear,160,2013-08-23 15:15:00
10:35 AM,69.8,50.0,49,30.16,10.0,South,12.7,-,N/A,,Clear,170,2013-08-23 15:35:00
10:55 AM,71.6,51.8,50,30.16,10.0,South,10.4,-,N/A,,Clear,180,2013-08-23 15:55:00
11:15 AM,73.4,51.8,47,30.16,10.0,South,11.5,-,N/A,,Clear,180,2013-08-23 16:15:00
11:35 AM,73.4,50.0,44,30.15,10.0,SSE,11.5,17.3,N/A,,Clear,150,2013-08-23 16:35:00
11:55 AM,73.4,50.0,44,30.14,10.0,SSE,6.9,-,N/A,,Clear,150,2013-08-23 16:55:00
12:15 PM,75.2,50.0,41,30.14,10.0,SSE,12.7,-,N/A,,Clear,160,2013-08-23 17:15:00
12:35 PM,75.2,48.2,38,30.14,10.0,SSE,11.5,-,N/A,,Clear,160,2013-08-23 17:35:00
12:55 PM,75.2,50.0,41,30.13,10.0,SSE,10.4,-,N/A,,Clear,160,2013-08-23 17:55:00
1:15 PM,78.8,50.0,36,30.12,10.0,South,10.4,-,N/A,,Clear,170,2013-08-23 18:15:00
1:35 PM,78.8,50.0,36,30.12,10.0,South,8.1,17.3,N/A,,Clear,190,2013-08-23 18:35:00
1:55 PM,78.8,51.8,39,30.11,10.0,SSE,12.7,-,N/A,,Clear,160,2013-08-23 18:55:00
2:15 PM,78.8,51.8,39,30.11,10.0,SSE,12.7,-,N/A,,Clear,150,2013-08-23 19:15:00
2:35 PM,78.8,51.8,39,30.10,10.0,South,12.7,-,N/A,,Clear,170,2013-08-23 19:35:00
2:55 PM,78.8,51.8,39,30.10,10.0,SSW,6.9,-,N/A,,Clear,200,2013-08-23 19:55:00
3:15 PM,80.6,51.8,37,30.09,10.0,SSW,8.1,-,N/A,,Clear,210,2013-08-23 20:15:00
3:35 PM,80.6,51.8,37,30.08,10.0,SSE,10.4,-,N/A,,Clear,160,2013-08-23 20:35:00
3:55 PM,80.6,51.8,37,30.08,10.0,South,9.2,-,N/A,,Clear,180,2013-08-23 20:55:00
4:15 PM,80.6,50.0,34,30.08,10.0,SSE,11.5,-,N/A,,Clear,160,2013-08-23 21:15:00
4:35 PM,80.6,51.8,37,30.07,10.0,South,10.4,-,N/A,,Clear,170,2013-08-23 21:35:00
4:55 PM,80.6,51.8,37,30.06,10.0,SSE,9.2,16.1,N/A,,Clear,150,2013-08-23 21:55:00
5:15 PM,80.6,51.8,37,30.06,10.0,SSE,13.8,-,N/A,,Clear,160,2013-08-23 22:15:00
5:35 PM,80.6,51.8,37,30.06,10.0,SSE,10.4,-,N/A,,Clear,160,2013-08-23 22:35:00
5:55 PM,80.6,51.8,37,30.05,10.0,SSE,11.5,-,N/A,,Clear,160,2013-08-23 22:55:00
6:15 PM,80.6,53.6,39,30.05,10.0,South,11.5,-,N/A,,Clear,180,2013-08-23 23:15:00
6:35 PM,78.8,53.6,42,30.05,10.0,South,6.9,-,N/A,,Clear,190,2013-08-23 23:35:00
6:55 PM,78.8,55.4,44,30.05,10.0,South,5.8,-,N/A,,Clear,170,2013-08-23 23:55:00
7:15 PM,75.2,57.2,53,30.04,10.0,Calm,Calm,-,N/A,,Clear,0,2013-08-24 00:15:00
7:35 PM,71.6,59.0,64,30.04,10.0,Calm,Calm,-,N/A,,Clear,0,2013-08-24 00:35:00
7:55 PM,68.0,57.2,68,30.04,10.0,South,3.5,-,N/A,,Clear,180,2013-08-24 00:55:00
8:15 PM,66.2,57.2,73,30.04,10.0,South,3.5,-,N/A,,Clear,180,2013-08-24 01:15:00
8:35 PM,64.4,57.2,77,30.04,10.0,Calm,Calm,-,N/A,,Clear,0,2013-08-24 01:35:00
8:55 PM,64.4,57.2,77,30.04,10.0,SE,3.5,-,N/A,,Clear,140,2013-08-24 01:55:00
9:15 PM,66.2,57.2,73,30.04,10.0,SE,5.8,-,N/A,,Clear,130,2013-08-24 02:15:00
9:35 PM,66.2,55.4,68,30.04,10.0,SSE,3.5,-,N/A,,Clear,150,2013-08-24 02:35:00
9:55 PM,66.2,55.4,68,30.05,10.0,SE,5.8,-,N/A,,Clear,140,2013-08-24 02:55:00
10:15 PM,69.8,55.4,60,30.04,10.0,SE,6.9,-,N/A,,Clear,140,2013-08-24 03:15:00
10:35 PM,68.0,55.4,64,30.04,10.0,SE,6.9,-,N/A,,Clear,140,2013-08-24 03:35:00
10:55 PM,66.2,55.4,68,30.04,10.0,SSE,4.6,-,N/A,,Clear,150,2013-08-24 03:55:00
11:15 PM,66.2,55.4,68,30.05,10.0,SSE,5.8,-,N/A,,Clear,160,2013-08-24 04:15:00
11:35 PM,64.4,55.4,73,30.05,10.0,SSE,5.8,-,N/A,,Clear,150,2013-08-24 04:35:00
11:55 PM,64.4,53.6,68,30.05,10.0,SE,5.8,-,N/A,,Clear,140,2013-08-24 04:55:00